GW5800 Weather Reports


time (UTC)temp
F
wind
direction
speed
knots
gust
knots
rain 1hr
in
rain 24hr
in
rain mn
in
humidity
%
barometer
mb
20260508034641 39 100 1.7 1.7 0.00 0.00 0.00 87 1013.7
20260508034138 39 91 1.7 1.7 0.00 0.00 0.00 85 1013.8
20260508033636 39 84 1.7 1.7 0.00 0.00 0.00 83 1013.8
20260508033134 39 96 0.9 1.7 0.00 0.00 0.00 82 1013.7
20260508032630 39 110 1.7 1.7 0.00 0.00 0.00 82 1013.6
20260508032128 39 118 1.7 2.6 0.00 0.00 0.00 82 1013.7
20260508031625 40 124 1.7 1.7 0.00 0.00 0.00 80 1013.8
20260508031121 40 100 0.9 1.7 0.00 0.00 0.00 79 1013.9
20260508030617 40 107 1.7 2.6 0.00 0.00 0.00 79 1013.9
20260508030115 40 112 1.7 1.7 0.00 0.00 0.00 79 1013.8
20260508025611 40 104 1.7 1.7 0.00 0.00 0.00 78 1013.8
20260508025108 40 107 1.7 1.7 0.00 0.00 0.00 77 1013.9
20260508024604 41 109 0.9 1.7 0.00 0.00 0.00 77 1013.9
20260508024102 41 118 1.7 1.7 0.00 0.00 0.00 76 1013.9
20260508023558 41 119 1.7 1.7 0.00 0.00 0.00 76 1013.7
20260508023055 41 120 0.0 1.7 0.00 0.00 0.00 74 1013.9
20260508022551 42 107 0.9 1.7 0.00 0.00 0.00 72 1013.8
20260508022048 42 103 0.0 1.7 0.00 0.00 0.00 72 1013.7
20260508021544 42 115 1.7 1.7 0.00 0.00 0.00 72 1013.7
20260508021040 43 117 1.7 2.6 0.00 0.00 0.00 71 1013.7
20260508020537 43 117 1.7 1.7 0.00 0.00 0.00 70 1013.7
20260508020035 43 110 1.7 2.6 0.00 0.00 0.00 69 1013.7
20260508015533 44 118 1.7 2.6 0.00 0.00 0.00 68 1013.6
20260508015030 44 109 1.7 1.7 0.00 0.00 0.00 66 1013.5
20260508014526 44 103 1.7 1.7 0.00 0.00 0.00 63 1013.8
20260508014022 44 124 1.7 2.6 0.00 0.00 0.00 62 1013.7
20260508013518 45 131 1.7 2.6 0.00 0.00 0.00 64 1013.6
20260508013016 45 130 1.7 1.7 0.00 0.00 0.00 63 1013.5
20260508012513 45 119 1.7 1.7 0.00 0.00 0.00 59 1013.5
20260508012010 46 114 1.7 2.6 0.00 0.00 0.00 60 1013.4
20260508011508 46 120 1.7 2.6 0.00 0.00 0.00 61 1013.5
20260508011005 47 106 1.7 2.6 0.00 0.00 0.00 58 1013.4
20260508010502 47 113 2.6 2.6 0.00 0.00 0.00 57 1013.5
20260508005959 48 115 2.6 3.5 0.00 0.00 0.00 59 1013.2
20260508005455 48 117 2.6 2.6 0.00 0.00 0.00 56 1013.3
20260508004953 49 116 2.6 2.6 0.00 0.00 0.00 53 1013.3
20260508004448 49 107 1.7 1.7 0.00 0.00 0.00 51 1013.2
20260508003945 50 127 0.0 1.7 0.00 0.00 0.00 49 1013.3
20260508003442 50 89 0.9 0.9 0.00 0.00 0.00 47 1013.0
20260508002940 50 60 0.0 0.9 0.00 0.00 0.00 47 1013.0
20260508002436 50 89 0.9 0.9 0.00 0.00 0.00 47 1013.0
20260508001932 51 61 0.9 0.9 0.00 0.00 0.00 46 1013.0
20260508001428 51 139 0.0 3.5 0.00 0.00 0.00 47 1013.0
20260508000925 51 75 0.0 1.7 0.00 0.00 0.00 47 1012.8
20260508000420 52 56 1.7 4.3 0.00 0.00 0.00 45 1012.8
20260507235918 52 4 0.9 3.5 0.00 0.00 0.00 45 1012.8
20260507235415 52 47 1.7 2.6 0.00 0.00 0.00 46 1012.6
20260507234912 53 228 4.3 4.3 0.00 0.00 0.00 41 1012.5
20260507234409 53 53 0.0 1.7 0.00 0.00 0.00 43 1012.8
20260507233905 53 44 0.0 1.7 0.00 0.00 0.00 44 1012.7
20260507233402 53 60 0.0 2.6 0.00 0.00 0.00 41 1012.8
20260507232901 53 327 1.7 7.8 0.00 0.00 0.00 42 1012.8
20260507232357 54 33 1.7 1.7 0.00 0.00 0.00 41 1012.7
20260507231854 54 25 0.0 3.5 0.00 0.00 0.00 42 1012.8
20260507231350 54 217 2.6 3.5 0.00 0.00 0.00 38 1012.6
20260507230847 54 251 3.5 4.3 0.00 0.00 0.00 41 1012.5
20260507230344 54 232 1.7 3.5 0.00 0.00 0.00 40 1012.6
20260507225844 54 338 1.7 6.1 0.00 0.00 0.00 41 1012.5
20260507225340 55 266 2.6 8.7 0.00 0.00 0.00 41 1012.5
20260507224837 55 298 2.6 5.2 0.00 0.00 0.00 43 1012.6
20260507224334 56 28 0.0 5.2 0.00 0.00 0.00 43 1012.9
20260507223829 55 29 1.7 1.7 0.00 0.00 0.00 48 1012.7
20260507223326 55 23 1.7 3.5 0.00 0.00 0.00 47 1012.9
20260507222823 55 214 3.5 7.0 0.00 0.00 0.00 48 1012.9
20260507222319 56 298 0.9 2.6 0.00 0.00 0.00 49 1012.7
20260507221817 55 13 1.7 1.7 0.00 0.00 0.00 49 1012.6
20260507221313 56 32 2.6 2.6 0.00 0.00 0.00 50 1012.5
20260507220809 55 40 1.7 3.5 0.00 0.00 0.00 51 1012.8
20260507220308 54 233 2.6 2.6 0.00 0.00 0.00 52 1012.6
20260507215803 54 245 0.9 2.6 0.00 0.00 0.00 53 1012.6
20260507215301 55 271 1.7 3.5 0.00 0.00 0.00 49 1012.4
20260507214758 56 0 4.3 7.0 0.00 0.00 0.00 47 1012.4
20260507214255 55 338 1.7 3.5 0.00 0.00 0.00 50 1012.4
20260507213750 55 204 2.6 7.0 0.00 0.00 0.00 52 1012.4
20260507213248 54 341 1.7 5.2 0.00 0.00 0.00 50 1012.2
20260507212744 54 14 1.7 2.6 0.00 0.00 0.00 53 1012.3
20260507212240 55 17 2.6 7.8 0.00 0.00 0.00 48 1011.9
20260507211737 56 4 3.5 3.5 0.00 0.00 0.00 47 1011.9
20260507211234 56 358 2.6 3.5 0.00 0.00 0.00 48 1012.0
20260507210731 55 131 1.7 2.6 0.00 0.00 0.00 48 1011.9
20260507210227 55 146 0.9 2.6 0.00 0.00 0.00 49 1011.7
20260507205724 56 17 2.6 3.5 0.00 0.00 0.00 47 1011.6
20260507205221 56 28 2.6 3.5 0.00 0.00 0.00 46 1011.7
20260507204716 57 1 0.0 9.6 0.00 0.00 0.00 47 1011.5
20260507204215 58 252 4.3 4.3 0.00 0.00 0.00 46 1011.4
20260507203712 58 33 4.3 5.2 0.00 0.00 0.00 42 1011.5
20260507203210 57 21 0.9 4.3 0.00 0.00 0.00 44 1011.7
20260507202705 58 240 1.7 3.5 0.00 0.00 0.00 43 1011.5
20260507202201 57 85 0.9 4.3 0.00 0.00 0.00 44 1011.5
20260507201656 58 254 3.5 7.0 0.00 0.00 0.00 43 1011.5
20260507201154 58 4 4.3 4.3 0.00 0.00 0.00 42 1011.6
20260507200650 58 32 4.3 5.2 0.00 0.00 0.00 44 1011.7
20260507200146 57 34 1.7 3.5 0.00 0.00 0.00 46 1011.7
20260507195643 57 347 1.7 2.6 0.00 0.00 0.00 44 1011.6
20260507195140 57 76 0.0 2.6 0.00 0.00 0.00 48 1011.7
20260507194637 56 305 0.9 7.0 0.00 0.00 0.00 46 1012.0
20260507194132 56 235 2.6 3.5 0.00 0.00 0.00 47 1011.9
20260507193629 57 234 1.7 4.3 0.00 0.00 0.00 46 1011.8
20260507193127 56 323 0.9 2.6 0.00 0.00 0.00 49 1012.0
20260507192622 56 200 1.7 2.6 0.00 0.00 0.00 47 1011.9
20260507192120 57 235 2.6 4.3 0.00 0.00 0.00 47 1011.9
20260507191615 56 245 0.0 1.7 0.00 0.00 0.00 47 1011.8
20260507191112 56 222 2.6 4.3 0.00 0.00 0.00 46 1011.8
20260507190609 57 21 2.6 2.6 0.00 0.00 0.00 48 1011.9
20260507190108 57 34 2.6 2.6 0.00 0.00 0.00 47 1011.8
20260507185606 57 235 0.0 5.2 0.00 0.00 0.00 47 1011.9
20260507185102 57 36 1.7 2.6 0.00 0.00 0.00 49 1012.0
20260507184601 56 180 1.7 3.5 0.00 0.00 0.00 49 1011.8
20260507184058 56 232 1.7 6.1 0.00 0.00 0.00 48 1011.9
20260507183554 57 175 0.0 6.1 0.00 0.00 0.00 43 1012.0
20260507183051 58 228 3.5 7.8 0.00 0.00 0.00 41 1011.9
20260507182548 58 173 1.7 5.2 0.00 0.00 0.00 41 1011.8
20260507182043 58 264 3.5 4.3 0.00 0.00 0.00 44 1011.6
20260507181541 58 207 2.6 6.1 0.00 0.00 0.00 41 1011.8
20260507181037 60 223 4.3 7.0 0.00 0.00 0.00 37 1011.8
20260507180533 59 254 3.5 6.1 0.00 0.00 0.00 38 1011.8
20260507180030 59 235 5.2 7.8 0.00 0.00 0.00 37 1011.8
20260507175526 58 234 1.7 3.5 0.00 0.00 0.00 38 1011.9
20260507175024 57 70 1.7 3.5 0.00 0.00 0.00 42 1012.0
20260507174521 57 89 0.0 5.2 0.00 0.00 0.00 43 1011.8
20260507174019 58 221 3.5 4.3 0.00 0.00 0.00 39 1011.9
20260507173515 58 64 1.7 4.3 0.00 0.00 0.00 40 1012.1
20260507173013 59 181 1.7 3.5 0.00 0.00 0.00 39 1012.0
20260507172508 58 15 3.5 3.5 0.00 0.00 0.00 42 1012.1
20260507172005 57 232 3.5 5.2 0.00 0.00 0.00 39 1012.0
20260507171501 58 157 3.5 8.7 0.00 0.00 0.00 41 1012.1
20260507170958 57 211 1.7 5.2 0.00 0.00 0.00 41 1012.3
20260507170455 56 166 1.7 1.7 0.00 0.00 0.00 43 1012.4
20260507165951 57 247 2.6 3.5 0.00 0.00 0.00 41 1012.4
20260507165447 56 245 3.5 4.3 0.00 0.00 0.00 43 1012.5
20260507164943 56 134 1.7 2.6 0.00 0.00 0.00 43 1012.4
20260507164440 56 248 2.6 3.5 0.00 0.00 0.00 44 1012.6
20260507163937 57 235 1.7 5.2 0.00 0.00 0.00 43 1012.6
20260507163435 57 19 2.6 4.3 0.00 0.00 0.00 44 1012.3
20260507162932 57 252 4.3 5.2 0.00 0.00 0.00 42 1012.4
20260507162427 57 220 2.6 7.8 0.00 0.00 0.00 45 1012.3
20260507161925 56 188 1.7 2.6 0.00 0.00 0.00 45 1012.4
20260507161420 56 250 3.5 6.1 0.00 0.00 0.00 42 1012.3
20260507160917 56 182 0.9 5.2 0.00 0.00 0.00 44 1012.6
20260507160413 57 229 4.3 4.3 0.00 0.00 0.00 44 1012.7
20260507155909 58 84 1.7 3.5 0.00 0.00 0.00 44 1012.5
20260507155405 58 262 0.0 3.5 0.00 0.00 0.00 42 1012.5
20260507154903 57 142 7.8 9.6 0.00 0.00 0.00 41 1012.7
20260507154359 55 169 1.7 3.5 0.00 0.00 0.00 47 1012.7
20260507153857 55 235 0.0 3.5 0.00 0.00 0.00 47 1012.8
20260507153353 58 338 1.7 4.3 0.00 0.00 0.00 46 1012.8
20260507152849 58 34 1.7 2.6 0.00 0.00 0.00 46 1012.5
20260507152346 57 160 1.7 2.6 0.00 0.00 0.00 41 1012.7
20260507151842 56 236 1.7 3.5 0.00 0.00 0.00 50 1012.8
20260507151338 54 92 0.9 1.7 0.00 0.00 0.00 52 1012.9
20260507150836 55 310 0.0 1.7 0.00 0.00 0.00 48 1012.8
20260507150332 56 318 0.9 1.7 0.00 0.00 0.00 48 1012.8
20260507145828 56 227 2.6 4.3 0.00 0.00 0.00 50 1012.8
20260507145325 54 181 0.9 1.7 0.00 0.00 0.00 50 1012.9
20260507144822 54 25 0.0 2.6 0.00 0.00 0.00 50 1012.9
20260507144319 55 18 0.9 2.6 0.00 0.00 0.00 49 1013.0
20260507143815 57 197 1.7 4.3 0.00 0.00 0.00 45 1012.9
20260507143313 56 127 1.7 2.6 0.00 0.00 0.00 53 1012.9
20260507142809 55 255 4.3 4.3 0.00 0.00 0.00 50 1012.8
20260507142307 55 351 0.9 2.6 0.00 0.00 0.00 52 1013.1
20260507141802 55 251 0.9 2.6 0.00 0.00 0.00 49 1012.9
20260507141259 55 257 1.7 5.2 0.00 0.00 0.00 51 1013.0
20260507140755 55 38 4.3 4.3 0.00 0.00 0.00 52 1013.1
20260507140253 56 141 0.0 4.3 0.00 0.00 0.00 47 1013.1
20260507135750 55 53 2.6 3.5 0.00 0.00 0.00 55 1013.3
20260507135247 55 234 2.6 5.2 0.00 0.00 0.00 58 1013.5
20260507134743 54 125 2.6 7.0 0.00 0.00 0.00 55 1013.5
20260507134240 54 244 0.9 1.7 0.00 0.00 0.00 58 1013.3
20260507133736 54 131 5.2 7.0 0.00 0.00 0.00 54 1013.5
20260507133232 54 136 3.5 3.5 0.00 0.00 0.00 58 1013.4
20260507132730 54 176 0.0 4.3 0.00 0.00 0.00 58 1013.4
20260507132227 53 182 1.7 4.3 0.00 0.00 0.00 59 1013.5
20260507131723 52 115 2.6 3.5 0.00 0.00 0.00 61 1013.7
20260507131221 52 207 1.7 2.6 0.00 0.00 0.00 61 1013.4
20260507130717 51 55 0.0 3.5 0.00 0.00 0.00 61 1013.5
20260507130215 51 204 0.0 1.7 0.00 0.00 0.00 63 1013.6
20260507125714 50 101 2.6 3.5 0.00 0.00 0.00 65 1013.5
20260507125211 50 268 1.7 3.5 0.00 0.00 0.00 66 1013.5
20260507124707 49 334 0.9 2.6 0.00 0.00 0.00 67 1013.6
20260507124205 48 156 0.0 0.9 0.00 0.00 0.00 73 1013.6
20260507123703 48 87 1.7 5.2 0.00 0.00 0.00 73 1013.6
20260507123200 47 113 1.7 1.7 0.00 0.00 0.00 75 1013.6
20260507122655 46 231 0.9 1.7 0.00 0.00 0.00 79 1013.6
20260507122151 44 221 0.0 2.6 0.00 0.00 0.00 87 1013.6
20260507121647 44 99 1.7 2.6 0.00 0.00 0.00 91 1013.4
20260507121143 43 102 1.7 2.6 0.00 0.00 0.00 93 1013.5
20260507120639 43 94 1.7 2.6 0.00 0.00 0.00 95 1013.7
20260507120136 42 109 1.7 3.5 0.00 0.00 0.00 96 1013.7
20260507115632 42 99 1.7 2.6 0.00 0.00 0.00 97 1013.6
20260507115128 41 118 1.7 5.2 0.00 0.00 0.00 97 1013.7
20260507114624 41 88 2.6 2.6 0.00 0.00 0.00 97 1013.8
20260507114121 40 101 2.6 2.6 0.00 0.00 0.00 97 1013.8
20260507113619 40 97 1.7 2.6 0.00 0.00 0.00 97 1013.6
20260507113116 40 65 1.7 2.6 0.00 0.00 0.00 97 1013.7
20260507112614 40 71 2.6 3.5 0.00 0.00 0.00 97 1013.6
20260507112110 39 75 1.7 2.6 0.00 0.00 0.00 97 1013.6
20260507111607 39 103 2.6 2.6 0.00 0.00 0.00 97 1013.6
20260507111104 39 93 2.6 3.5 0.00 0.00 0.00 97 1013.5
20260507110600 39 83 2.6 3.5 0.00 0.00 0.00 97 1013.5
20260507110057 39 81 1.7 2.6 0.00 0.00 0.00 97 1013.5
20260507105553 39 96 1.7 3.5 0.00 0.00 0.00 97 1013.5
20260507105049 39 92 3.5 3.5 0.00 0.00 0.00 97 1013.3
20260507104547 39 68 1.7 2.6 0.00 0.00 0.00 97 1013.2
20260507104043 39 96 2.6 3.5 0.00 0.00 0.00 97 1013.2
20260507103540 39 95 1.7 3.5 0.00 0.00 0.00 97 1013.2
20260507103037 39 116 2.6 2.6 0.00 0.00 0.00 97 1013.2
20260507102533 39 104 1.7 3.5 0.00 0.00 0.00 97 1013.0
20260507102031 38 119 1.7 3.5 0.00 0.00 0.00 97 1013.3
20260507101525 38 93 1.7 2.6 0.00 0.00 0.00 97 1013.1
20260507101021 38 91 1.7 1.7 0.00 0.00 0.00 97 1013.0
20260507100519 38 87 1.7 2.6 0.00 0.00 0.00 97 1013.0
20260507100017 38 83 0.9 2.6 0.00 0.00 0.00 97 1013.1
20260507095514 38 95 1.7 3.5 0.00 0.00 0.00 97 1012.9
20260507095011 38 84 1.7 2.6 0.00 0.00 0.00 97 1013.2
20260507094507 38 84 1.7 2.6 0.00 0.00 0.00 97 1013.0
20260507094005 38 111 1.7 2.6 0.00 0.00 0.00 97 1013.1
20260507093502 37 87 1.7 1.7 0.00 0.00 0.00 97 1013.2
20260507093000 37 99 1.7 2.6 0.00 0.00 0.00 97 1013.3
20260507092456 37 87 1.7 2.6 0.00 0.00 0.00 97 1013.2
20260507091953 37 95 1.7 1.7 0.00 0.00 0.00 97 1013.2
20260507091449 37 94 1.7 1.7 0.00 0.00 0.00 96 1013.3
20260507090945 36 89 1.7 1.7 0.00 0.00 0.00 96 1013.3
20260507090441 36 78 1.7 2.6 0.00 0.00 0.00 96 1013.2
20260507085938 37 97 1.7 1.7 0.00 0.00 0.00 96 1013.4
20260507085436 37 114 0.9 1.7 0.00 0.00 0.00 96 1013.3
20260507084932 37 116 1.7 1.7 0.00 0.00 0.00 96 1013.1
20260507084429 37 110 1.7 1.7 0.00 0.00 0.00 96 1013.3
20260507083926 37 98 1.7 1.7 0.00 0.00 0.00 96 1013.4
20260507083423 37 103 1.7 1.7 0.00 0.00 0.00 96 1013.5
20260507082919 37 67 1.7 1.7 0.00 0.00 0.00 96 1013.3
20260507082415 37 101 1.7 1.7 0.00 0.00 0.00 96 1013.4
20260507081912 37 98 0.9 1.7 0.00 0.00 0.00 96 1013.3
20260507081408 37 112 0.9 1.7 0.00 0.00 0.00 95 1013.6
20260507080905 37 101 1.7 1.7 0.00 0.00 0.00 95 1013.4
20260507080401 37 98 1.7 1.7 0.00 0.00 0.00 95 1013.5
20260507075857 37 93 0.9 1.7 0.00 0.00 0.00 95 1013.7
20260507075353 37 95 1.7 1.7 0.00 0.00 0.00 95 1013.5
20260507074849 37 93 1.7 1.7 0.00 0.00 0.00 95 1013.6
20260507074347 37 101 1.7 1.7 0.00 0.00 0.00 95 1013.6
20260507073844 37 92 1.7 1.7 0.00 0.00 0.00 95 1013.4
20260507073340 37 92 1.7 1.7 0.00 0.00 0.00 95 1013.6
20260507072838 38 98 0.9 1.7 0.00 0.00 0.00 94 1013.5
20260507072335 38 97 1.7 1.7 0.00 0.00 0.00 94 1013.7
20260507071833 38 87 0.9 1.7 0.00 0.00 0.00 94 1013.3
20260507071329 38 101 0.9 1.7 0.00 0.00 0.00 94 1013.4
20260507070826 38 96 1.7 1.7 0.00 0.00 0.00 94 1013.7
20260507070323 38 98 0.9 1.7 0.00 0.00 0.00 94 1013.6
20260507065820 39 79 0.0 1.7 0.00 0.00 0.00 93 1013.6
20260507065316 39 83 1.7 1.7 0.00 0.00 0.00 93 1013.7
20260507064814 39 100 0.9 1.7 0.00 0.00 0.00 93 1013.6
20260507064312 39 103 1.7 1.7 0.00 0.00 0.00 93 1013.9
20260507063810 39 101 1.7 1.7 0.00 0.00 0.00 93 1014.0
20260507063306 40 92 1.7 1.7 0.00 0.00 0.00 92 1013.9
20260507062803 40 99 1.7 1.7 0.00 0.00 0.00 92 1014.0
20260507062300 40 88 1.7 1.7 0.00 0.00 0.00 92 1014.1
20260507061758 40 79 1.7 2.6 0.00 0.00 0.00 91 1014.0
20260507061256 40 109 1.7 1.7 0.00 0.00 0.00 91 1014.1
20260507060754 41 107 1.7 1.7 0.00 0.00 0.00 90 1014.2
20260507060250 41 111 1.7 1.7 0.00 0.00 0.00 90 1014.3
20260507055747 41 110 0.9 1.7 0.00 0.00 0.00 90 1014.1
20260507055242 41 106 1.7 1.7 0.00 0.00 0.00 89 1014.2
20260507054739 41 101 1.7 1.7 0.00 0.00 0.00 89 1014.1
20260507054235 42 99 1.7 1.7 0.00 0.00 0.00 88 1014.3
20260507053733 42 89 0.9 1.7 0.00 0.00 0.00 88 1014.2
20260507053230 42 99 1.7 1.7 0.00 0.00 0.00 88 1014.2
20260507052729 42 108 0.9 1.7 0.00 0.00 0.00 88 1014.5
20260507052225 42 86 0.9 1.7 0.00 0.00 0.00 87 1014.4
20260507051723 42 101 1.7 1.7 0.00 0.00 0.00 87 1014.3
20260507051220 42 109 0.0 1.7 0.00 0.00 0.00 87 1014.3
20260507050716 43 111 0.9 1.7 0.00 0.00 0.00 87 1014.3
20260507050214 43 111 0.9 1.7 0.00 0.00 0.00 86 1014.5
20260507045710 43 92 0.9 1.7 0.00 0.00 0.00 86 1014.4
20260507045206 43 96 2.6 2.6 0.00 0.00 0.00 86 1014.4
20260507044704 43 101 1.7 2.6 0.00 0.00 0.00 85 1014.4
20260507044200 43 89 0.9 2.6 0.00 0.00 0.00 85 1014.9
20260507043656 43 128 1.7 2.6 0.00 0.00 0.00 84 1014.6
20260507043153 43 116 1.7 1.7 0.00 0.00 0.00 82 1014.9
20260507042650 43 107 1.7 1.7 0.00 0.00 0.00 82 1014.7
20260507042144 43 105 1.7 2.6 0.00 0.00 0.00 81 1014.7
20260507041642 43 110 1.7 2.6 0.00 0.00 0.00 81 1014.9
20260507041138 43 112 1.7 2.6 0.00 0.00 0.00 81 1014.7
20260507040636 43 102 0.9 1.7 0.00 0.00 0.00 81 1014.9
20260507040132 43 114 1.7 1.7 0.00 0.00 0.00 81 1014.9
20260507035628 43 108 1.7 1.7 0.00 0.00 0.00 79 1015.0
20260507035124 43 113 1.7 2.6 0.00 0.00 0.00 78 1014.9